Randolph AFB, TX

2:53 PM CDT on May 29, 2017 (GMT -0500)
Randolph Air Force Base

Weather History for KRND - July, 2013

Change the Weather History Date:

Friday, July 26, 2013

  Actual Average Record
Temperature  
Mean Temperature 84 °F -  
Max Temperature 97 °F 93 °F 102 °F (1998)
Min Temperature 71 °F 72 °F 68 °F (2004)
Cooling Degree Days 19    
Growing Degree Days 34 (Base 50)    
Moisture  
Dew Point 72 °F    
Average Humidity 71    
Maximum Humidity 100    
Minimum Humidity 38    
Precipitation  
Precipitation 0.00 in - - ()
Sea Level Pressure  
Sea Level Pressure 29.99 in    
Wind  
Wind Speed 7 mph (South)    
Max Wind Speed 18 mph    
Max Gust Speed 23 mph    
Visibility 10 miles    
Events      
Averages and records for this station are not official NWS values.
T = Trace of Precipitation, MM = Missing Value Source: NWS Daily Summary

Daily Weather History Graph

Daily Weather History Graph

Search for Another Location

Airport or City:

Trip Planner

Search our weather history database for the weather conditions in past years. The results will help you decide how hot, cold, wet, or windy it might be!

Date:

Astronomy

Jul. 26, 2013 Rise Set
Actual Time 6:49 AM CDT 8:29 PM CDT
Civil Twilight 6:23 AM CDT 8:55 PM CDT
Nautical Twilight 5:52 AM CDT 9:26 PM CDT
Astronomical Twilight 5:19 AM CDT 9:59 PM CDT
Moon 11:12 PM CDT (7/26) 11:01 AM CDT (7/26)
Length of Visible Light 14h 31m
Length of Day
13h 39m
Waning Gibbous, 80% of the Moon is Illuminated
Jul 26
Waning Gibbous
Jul 29
Last Quarter
Aug 6
New
Aug 14
First Quarter
Aug 20
Full

Hourly Weather History & Observations

Time (CDT) Temp. Heat Index Dew Point Humidity Pressure Visibility Wind Dir Wind Speed Gust Speed Precip Events Conditions
12:58 AM 79.7 °F - 70.9 °F 74% 30.03 in 10.0 mi South 6.9 mph - N/A   Clear
1:58 AM 77.7 °F - 72.0 °F 82% 30.03 in 10.0 mi South 5.8 mph - N/A   Clear
2:58 AM 77.5 °F - 71.6 °F 82% 30.01 in 10.0 mi South 5.8 mph - N/A   Clear
3:58 AM 74.5 °F - 71.1 °F 89% 29.99 in 10.0 mi South 3.5 mph - N/A   Clear
4:58 AM 73.4 °F - 71.1 °F 92% 29.99 in 10.0 mi SSE 3.5 mph - N/A   Clear
5:58 AM 74.3 °F - 72.1 °F 93% 29.99 in 10.0 mi South 4.6 mph - N/A   Clear
6:43 AM 71.6 °F - 71.6 °F 100% 30.03 in 10.0 mi South 2.3 mph - N/A   Mostly Cloudy
6:58 AM 73.4 °F - 71.6 °F 94% 30.01 in 10.0 mi South 2.3 mph - N/A   Overcast
7:33 AM 75.2 °F - 73.4 °F 94% 30.04 in 10.0 mi South 2.3 mph - N/A   Overcast
7:53 AM 77.0 °F - 73.4 °F 89% 30.05 in 10.0 mi South 3.5 mph - N/A   Overcast
7:58 AM 76.3 °F - 73.8 °F 92% 30.02 in 10.0 mi South 4.6 mph - N/A   Overcast
8:58 AM 78.4 °F - 73.8 °F 85% 30.05 in 10.0 mi South 8.1 mph - N/A   Overcast
9:08 AM 80.6 °F 85.4 °F 73.4 °F 79% 30.05 in 10.0 mi South 10.4 mph - N/A   Overcast
9:18 AM 80.6 °F 85.4 °F 73.4 °F 79% 30.05 in 10.0 mi SSW 10.4 mph - N/A   Overcast
9:28 AM 80.6 °F 85.4 °F 73.4 °F 79% 30.05 in 10.0 mi SSW 10.4 mph - N/A   Overcast
9:43 AM 80.6 °F 85.4 °F 73.4 °F 79% 30.05 in 10.0 mi South 8.1 mph - N/A   Overcast
9:48 AM 80.6 °F 85.4 °F 73.4 °F 79% 30.05 in 10.0 mi SSW 9.2 mph - N/A   Overcast
9:58 AM 80.6 °F 85.0 °F 72.9 °F 77% 30.05 in 10.0 mi SSW 10.4 mph - N/A   Overcast
10:48 AM 82.4 °F 88.2 °F 73.4 °F 74% 30.05 in 10.0 mi SSW 9.2 mph - N/A   Overcast
10:53 AM 82.4 °F 88.2 °F 73.4 °F 74% 30.05 in 10.0 mi SSW 8.1 mph - N/A   Overcast
10:58 AM 82.4 °F 88.2 °F 73.4 °F 74% 30.05 in 10.0 mi South 8.1 mph - N/A   Overcast
11:28 AM 86.0 °F 93.4 °F 73.4 °F 66% 30.05 in 10.0 mi Variable 5.8 mph - N/A   Scattered Clouds
11:58 AM 86.7 °F 94.1 °F 73.4 °F 64% 30.01 in 10.0 mi South 9.2 mph - N/A   Clear
12:58 PM 89.1 °F 97.0 °F 72.9 °F 59% 30.00 in 10.0 mi South 3.5 mph - N/A   Partly Cloudy
1:58 PM 91.0 °F 97.6 °F 71.1 °F 52% 29.97 in 10.0 mi SSE 8.1 mph - N/A   Partly Cloudy
2:58 PM 93.7 °F 100.5 °F 70.9 °F 47% 29.94 in 10.0 mi SSW 8.1 mph - N/A   Clear
3:58 PM 95.7 °F 99.8 °F 67.5 °F 39% 29.92 in 10.0 mi Variable 4.6 mph - N/A   Clear
4:58 PM 97.2 °F 103.2 °F 68.9 °F 40% 29.91 in 10.0 mi WSW 6.9 mph - N/A   Clear
5:58 PM 97.2 °F 101.9 °F 67.6 °F 38% 29.88 in 10.0 mi South 10.4 mph - N/A   Clear
6:58 PM 95.4 °F 99.1 °F 66.9 °F 39% 29.86 in 10.0 mi SSW 6.9 mph - N/A   Clear
7:58 PM 93.2 °F 97.7 °F 68.0 °F 44% 29.86 in 10.0 mi South 6.9 mph - N/A   Clear
8:58 PM 90.1 °F 93.5 °F 67.6 °F 47% 29.88 in 10.0 mi South 8.1 mph - N/A   Clear
9:58 PM 87.8 °F 97.1 °F 74.8 °F 65% 29.91 in 10.0 mi South 18.4 mph 23.0 mph N/A   Clear
10:58 PM 84.4 °F 91.0 °F 73.4 °F 69% 29.93 in 10.0 mi South 10.4 mph - N/A   Partly Cloudy
11:58 PM 82.4 °F 87.7 °F 72.7 °F 72% 29.93 in 10.0 mi South 8.1 mph - N/A   Clear